Theta_e
311 311 311 311 311 311 311 311 311 311 311 311 311 311 312 313 314 315 316 316 315 314 316 318 317 316 315 315 315 315 314 314 313 313 314 314 314 315 316 317 318 318 318 318 318 317 315 315 315 314 315 317 318 317 316 316 317 318 320 319 318 319 318 318 318 317 317 317 316 312 311 314 314 311 310 310 310 310 310 310 311 312 312 312 312 311 311 311
311 311 311 311 311 310 311 311 311 311 311 310 310 310 310 311 312 313 315 316 315 315 315 317 318 317 316 315 315 314 314 314 313 314 314 314 314 314 316 318 318 318 318 319 319 318 316 316 316 314 316 317 318 318 318 316 316 318 318 318 318 319 318 316 317 316 316 315 315 313 311 313 314 312 310 311 312 310 309 310 310 310 311 311 312 311 310 310
311 311 311 311 311 310 310 310 311 311 311 311 310 310 310 310 311 311 313 314 315 315 315 315 316 317 317 316 316 314 314 314 314 315 314 314 314 314 316 318 318 318 318 318 319 319 318 318 316 314 316 318 317 317 318 317 317 317 317 318 318 318 317 315 314 315 314 314 314 313 311 311 312 312 310 312 313 311 311 313 311 310 311 312 312 311 310 309
311 311 311 310 310 311 310 310 311 310 310 311 310 310 310 310 310 310 311 312 314 315 315 315 315 316 317 317 316 315 314 315 316 315 315 314 315 315 316 318 318 318 317 318 319 319 319 319 316 314 316 318 316 316 317 316 316 316 316 318 318 315 316 315 314 313 313 312 313 312 310 310 311 310 310 312 313 313 313 314 313 313 313 313 313 312 310 309
310 311 311 311 311 310 310 310 310 310 310 310 310 310 310 310 310 310 310 311 312 313 315 315 314 315 317 317 316 316 315 316 317 316 315 314 315 316 316 317 318 318 318 317 318 319 319 318 315 314 316 317 317 316 316 314 314 316 315 315 315 313 315 314 313 312 312 311 311 311 311 311 311 310 310 311 313 315 315 314 314 314 314 313 313 312 311 309
311 311 311 311 311 311 311 310 310 310 310 310 310 310 310 310 310 310 310 310 311 312 313 314 314 314 316 317 317 316 316 317 318 316 315 314 314 316 316 317 317 318 318 317 318 318 319 318 315 315 316 317 316 316 315 312 312 316 315 312 312 313 314 313 312 312 311 310 311 311 312 311 310 311 310 310 313 315 315 314 314 313 313 312 312 311 310 310
311 311 312 311 311 311 311 311 311 310 310 310 310 310 310 310 310 310 310 310 310 311 312 312 313 314 314 317 317 316 316 317 318 317 315 314 314 316 316 316 317 318 317 317 317 317 318 318 316 315 316 317 315 314 313 311 311 314 315 313 312 312 312 313 311 311 311 310 311 310 311 311 311 312 310 309 312 313 313 313 313 312 312 312 312 311 311 310
311 311 312 312 312 312 312 312 312 311 311 310 310 310 310 310 310 310 310 310 310 310 311 311 312 314 314 316 317 316 316 317 317 317 317 316 315 315 316 316 316 317 317 317 317 317 318 319 317 315 316 316 315 314 312 311 312 313 314 313 312 311 312 312 311 311 311 310 310 309 310 311 311 310 308 310 313 312 312 313 312 312 311 311 311 311 311 310
311 312 312 312 312 312 312 312 312 312 312 311 311 310 310 310 310 310 310 310 310 310 310 310 311 313 314 315 316 317 317 317 317 318 317 317 316 314 315 316 316 316 316 317 317 317 317 318 318 316 316 315 314 315 311 312 314 313 313 313 312 312 312 312 311 311 310 310 309 309 311 312 310 309 310 312 313 312 312 311 311 311 311 311 311 310 310 310
312 312 312 312 312 312 312 312 312 313 313 313 312 311 311 311 310 310 310 310 310 310 310 310 311 313 314 315 316 317 316 316 317 317 318 317 316 314 314 315 316 315 315 316 316 316 317 318 318 316 316 314 314 314 311 312 314 312 311 311 311 311 310 310 310 310 309 310 309 310 313 312 308 308 312 314 313 312 312 311 311 311 310 310 310 310 310 310
312 312 312 312 312 312 312 312 312 313 314 314 313 313 313 312 312 311 311 311 311 311 310 311 311 313 314 314 316 317 315 315 316 316 317 317 316 314 313 314 315 315 315 315 316 316 316 317 318 316 315 315 314 312 310 311 311 310 310 311 311 310 310 310 309 309 309 310 309 309 311 310 307 308 312 313 312 312 311 311 311 310 310 310 310 310 309 309
312 312 312 313 312 312 312 312 312 313 313 314 314 314 314 314 314 313 312 311 311 311 310 311 312 313 314 314 315 316 315 315 315 316 316 317 316 315 313 313 314 315 314 315 315 316 316 316 317 317 315 315 314 312 311 310 309 309 309 312 313 312 312 311 309 308 309 310 309 308 310 310 308 310 313 313 311 311 310 310 310 310 310 310 310 309 309 309
312 312 313 313 313 313 313 313 313 313 314 314 314 314 314 314 314 314 313 312 312 311 310 311 312 312 313 314 314 314 314 315 315 315 316 316 317 316 314 313 313 314 314 314 314 315 315 315 316 316 315 314 313 311 311 309 308 310 309 311 313 314 314 311 307 307 308 310 308 309 313 314 313 312 314 313 312 311 309 309 310 310 310 310 310 310 309 309
312 313 313 313 314 314 314 314 314 314 314 314 313 313 313 313 313 313 313 313 312 312 311 311 311 311 312 314 313 314 314 314 315 315 315 316 316 316 314 313 313 314 314 314 314 314 315 315 315 316 314 312 311 310 310 309 309 311 310 311 313 314 314 311 307 308 310 310 307 309 313 316 316 315 315 314 312 310 308 309 310 310 310 310 310 310 309 309
313 313 313 314 314 314 314 314 314 314 315 315 314 313 313 312 313 313 313 312 312 312 311 311 311 312 313 314 313 313 314 314 315 315 315 316 315 315 314 313 313 313 314 314 314 314 314 314 315 315 312 311 311 311 313 313 311 311 311 314 315 314 315 313 309 308 311 309 306 310 314 315 316 315 314 314 312 309 307 308 309 310 310 310 310 310 309 309
313 314 313 314 314 314 314 314 314 314 315 315 315 314 313 313 313 312 312 312 312 312 311 312 312 312 314 314 313 314 314 314 315 315 315 315 315 314 313 313 313 313 313 313 314 314 314 314 314 312 311 311 312 313 316 316 314 313 312 315 316 314 315 314 309 306 308 309 308 310 313 315 315 313 312 312 311 309 307 308 309 309 310 310 310 309 309 308
314 314 314 314 314 314 314 314 314 314 315 315 315 314 314 313 313 312 312 312 311 311 311 312 313 314 314 314 314 314 314 315 315 315 315 315 314 313 313 312 313 313 313 313 314 313 313 314 313 312 312 311 311 314 316 315 316 316 313 314 316 315 313 313 311 306 305 308 310 310 310 312 314 313 312 311 310 308 307 308 309 309 309 309 309 309 308 308
312 312 313 313 314 314 314 314 314 314 315 314 314 314 314 313 313 312 312 311 311 311 312 314 314 314 314 314 314 314 315 316 316 315 315 314 314 313 312 312 312 313 313 313 313 313 314 314 313 314 314 311 310 314 316 315 317 316 315 314 314 314 312 313 313 308 306 307 309 310 310 311 312 313 313 312 310 308 308 309 310 309 308 308 308 307 307 307
308 309 309 310 310 311 311 311 312 312 313 314 314 314 314 313 312 312 311 311 311 313 314 315 314 314 314 314 314 314 315 315 315 314 314 314 314 312 312 312 312 313 313 314 314 313 314 314 314 315 316 314 313 315 316 317 317 315 315 315 314 314 313 314 312 306 306 307 308 310 310 311 311 311 312 312 310 308 308 309 309 309 308 307 307 306 305 305
309 309 309 309 309 308 309 308 309 309 310 311 311 312 313 312 311 312 311 311 312 313 313 314 314 314 314 314 314 314 314 314 313 313 314 314 313 313 312 312 312 313 313 315 317 313 313 315 316 316 317 317 315 315 315 315 313 313 315 315 315 315 314 314 311 304 304 307 309 310 310 310 311 311 311 311 310 309 309 309 309 309 308 307 307 306 305 305
310 310 309 310 310 309 309 309 309 309 308 308 308 309 311 310 310 311 310 310 311 312 312 312 312 313 313 313 314 314 313 313 313 313 314 313 313 313 313 312 313 314 313 314 315 312 312 316 317 317 317 315 314 313 312 311 311 312 314 315 314 315 314 313 309 304 303 306 309 310 309 309 310 310 311 311 310 309 310 311 310 310 310 309 308 307 306 306
310 310 310 310 310 310 310 310 310 309 308 307 307 308 309 309 310 310 309 311 311 311 311 311 311 311 312 312 312 312 312 312 312 312 313 313 313 313 312 312 313 314 313 311 313 313 314 316 317 316 313 311 310 308 308 310 310 311 313 313 314 314 314 312 308 303 304 306 310 310 308 309 310 310 311 311 311 311 311 311 311 311 311 311 310 308 307 306
310 310 310 310 310 310 309 310 309 309 308 306 306 307 308 308 309 309 309 311 311 311 310 310 310 310 311 311 311 311 311 312 312 311 312 312 312 312 312 312 312 314 313 312 315 315 316 316 313 311 310 310 308 305 307 309 310 311 312 313 314 315 314 313 309 304 304 306 307 308 307 309 310 310 311 311 311 310 310 310 310 310 311 311 310 309 307 307
309 309 309 309 310 309 309 309 308 308 307 305 306 307 307 308 308 309 311 311 311 311 310 310 310 310 311 311 311 311 311 311 311 311 311 312 312 312 312 312 312 312 312 312 314 315 316 313 306 306 308 311 310 306 307 310 311 312 313 313 315 315 313 312 310 306 307 306 304 307 310 311 313 313 313 311 308 307 307 307 308 310 311 310 309 308 308 309
310 310 310 309 309 308 308 308 308 308 307 305 306 307 308 308 309 311 311 312 312 311 311 311 311 311 311 311 311 311 311 311 311 311 311 311 312 312 311 312 312 312 313 312 312 314 315 309 306 309 308 310 312 308 309 312 313 313 313 314 313 313 313 311 309 308 311 311 306 307 311 313 315 315 314 313 310 309 308 307 308 310 311 310 307 308 309 310
311 311 311 310 310 309 307 307 308 308 307 307 307 307 308 309 312 313 311 311 312 311 311 312 312 313 312 312 312 311 312 312 311 311 311 311 311 311 311 311 310 311 312 312 311 314 313 305 306 313 311 311 313 311 312 312 313 314 313 313 311 311 312 311 309 309 313 313 308 307 311 313 314 313 314 315 312 312 313 313 312 311 312 311 308 308 310 311
312 312 312 312 311 309 307 307 308 309 308 309 309 309 310 311 313 312 309 309 311 313 313 312 312 314 313 312 312 311 313 313 310 310 311 311 311 311 312 311 310 309 308 310 313 313 311 306 306 310 312 312 312 313 313 310 312 315 311 309 309 309 311 310 310 311 311 311 308 308 311 312 313 312 313 315 313 313 314 314 314 314 313 312 310 309 310 311
312 311 312 312 311 309 306 306 307 307 308 310 310 309 310 311 311 310 307 308 311 314 315 312 312 313 312 312 311 310 311 311 311 311 310 310 310 310 311 311 311 310 307 310 315 312 310 310 310 310 310 311 312 313 313 311 313 313 306 305 307 307 309 309 310 310 309 308 310 311 310 311 313 313 311 312 312 312 313 313 314 315 315 312 310 311 311 312
311 312 312 311 311 310 306 305 305 306 309 310 310 311 310 310 310 308 307 309 312 315 314 312 312 312 312 311 311 310 309 309 311 310 308 309 310 309 310 310 310 310 306 308 316 314 309 308 308 310 311 312 312 308 307 312 313 307 303 305 306 305 306 307 308 309 308 308 312 312 310 311 313 313 310 309 310 312 313 313 314 315 314 312 311 312 313 313
311 312 312 311 311 310 308 306 305 306 309 310 311 311 310 309 309 309 309 310 312 314 311 311 312 312 312 312 312 310 309 309 308 307 308 308 309 308 309 309 308 310 309 308 312 312 306 303 304 309 310 309 307 302 301 307 308 304 305 308 308 307 305 305 307 308 309 312 314 313 312 311 312 314 312 310 311 312 314 313 314 315 313 311 312 312 313 313
311 312 312 312 311 311 309 307 307 306 307 311 311 310 310 309 308 310 311 311 311 312 312 312 312 311 312 314 315 311 309 309 307 307 308 307 308 308 308 310 310 310 312 311 312 311 307 305 306 308 305 304 306 304 301 301 302 305 308 310 311 311 308 307 307 307 311 314 312 310 311 311 312 313 313 312 312 312 314 314 314 316 314 312 312 313 312 312
313 312 313 313 313 312 309 307 307 306 307 311 311 309 310 309 309 309 309 309 312 314 315 316 313 311 312 314 317 313 311 311 308 307 309 308 309 309 310 313 313 313 314 313 314 313 312 310 309 308 304 304 309 309 304 302 302 306 309 310 313 314 312 312 312 310 312 314 309 305 308 310 311 312 312 311 311 310 312 314 315 316 315 313 313 313 312 312
315 313 313 314 314 313 311 308 307 306 309 311 310 308 309 309 310 311 308 309 314 314 314 316 313 312 312 314 315 312 311 313 308 306 309 309 309 310 312 313 313 315 315 313 313 313 314 312 308 309 307 305 310 312 311 308 305 306 310 312 314 315 314 315 314 311 312 314 308 303 306 309 310 311 312 311 311 311 311 312 313 313 313 313 312 312 312 311
319 316 314 313 314 314 312 309 307 307 309 310 309 308 308 308 311 313 312 311 313 312 312 313 312 312 312 314 314 312 313 314 309 307 309 309 308 310 312 311 311 313 312 311 312 312 315 315 311 311 311 308 309 312 315 312 306 307 311 312 313 315 314 314 312 310 312 313 308 304 307 311 311 311 312 311 311 312 311 310 310 310 310 311 310 310 310 310
322 320 316 314 314 314 314 312 307 307 309 309 309 309 309 310 310 312 312 311 312 313 312 311 312 314 313 313 312 311 313 315 311 308 309 309 310 311 312 311 310 311 312 313 312 311 313 315 313 309 308 307 309 311 312 311 309 307 308 310 312 313 312 312 312 311 311 312 310 307 309 312 311 311 311 311 311 311 311 311 309 308 309 309 308 309 309 310
324 322 319 317 315 315 315 312 307 307 308 308 309 309 309 310 311 312 312 309 311 315 313 311 313 314 313 313 313 312 312 312 310 310 310 310 311 312 313 314 311 309 312 314 315 314 313 314 312 305 305 304 304 305 307 310 311 308 307 310 310 310 311 311 312 309 308 310 313 311 311 312 312 311 309 310 311 310 310 310 309 308 308 307 307 309 310 310
323 321 319 318 317 316 315 312 308 308 309 308 310 311 310 310 310 311 311 307 309 313 313 312 313 314 314 313 314 314 312 311 310 311 312 311 311 312 312 313 311 309 312 314 316 317 315 314 311 306 308 303 297 300 304 304 306 307 308 310 309 308 310 310 311 311 310 312 313 313 312 312 313 312 309 308 310 310 309 309 309 308 308 307 307 309 310 310
322 320 318 318 319 317 316 312 308 308 308 307 310 312 311 310 307 306 308 307 309 313 313 313 312 313 315 314 314 313 312 313 311 311 313 312 312 313 312 313 311 309 311 312 316 319 316 315 312 304 305 302 297 302 307 303 302 305 306 307 308 310 311 310 310 312 312 313 313 314 314 313 313 313 311 310 309 309 309 309 308 307 307 306 306 308 309 310
321 318 317 318 318 317 316 312 308 308 308 307 310 311 311 311 306 304 307 308 310 312 312 312 312 312 314 314 314 313 312 313 313 311 312 312 313 313 312 314 314 310 310 310 313 316 313 314 314 304 301 303 302 304 309 307 303 302 304 305 305 309 311 310 310 311 312 313 313 314 315 314 314 314 313 312 311 310 310 309 308 307 307 306 306 307 309 310
319 316 315 316 317 317 315 310 308 309 309 309 311 311 310 310 308 306 307 308 309 310 310 312 312 311 312 314 314 313 312 314 313 312 312 312 313 312 310 313 316 312 309 309 312 315 313 313 314 306 300 304 306 306 310 311 307 304 305 307 306 306 307 308 309 309 310 312 312 313 314 314 313 313 312 312 311 312 311 310 310 309 308 307 307 308 310 310
318 315 315 315 316 316 313 309 309 310 310 310 311 311 309 309 307 308 308 307 307 308 308 311 312 310 311 312 311 311 312 313 312 311 312 311 311 312 311 311 315 312 308 308 311 313 313 314 314 311 306 307 309 309 308 310 310 308 307 308 308 308 308 309 310 309 308 310 312 312 313 314 313 313 311 310 311 313 311 311 311 309 307 307 307 309 310 310
317 315 315 315 315 316 312 309 309 309 309 310 311 310 310 309 308 308 307 306 306 306 307 308 309 310 310 311 311 312 312 314 313 311 311 312 311 311 311 311 311 310 309 310 311 312 314 315 314 313 313 312 308 304 301 304 309 309 308 309 309 309 309 311 313 311 308 309 310 309 310 313 314 314 312 312 312 311 310 310 310 308 307 308 309 310 311 311
315 315 315 314 314 315 312 309 308 308 308 310 310 311 310 309 309 309 308 307 307 307 307 308 308 308 309 310 311 311 310 313 315 313 312 314 313 310 310 310 309 310 311 311 311 311 313 315 314 313 314 313 306 300 298 301 306 308 307 307 308 308 310 311 310 309 309 310 309 308 309 311 313 314 313 312 312 310 307 307 308 308 307 309 310 310 311 311
315 314 312 312 313 313 312 311 309 308 308 309 310 311 311 310 310 310 309 309 308 308 308 308 307 307 309 310 309 309 309 310 313 313 312 314 312 308 308 308 309 311 311 311 312 311 311 313 314 313 314 315 310 306 303 302 303 306 306 306 307 308 309 309 307 306 308 311 310 310 310 312 312 313 312 311 310 310 307 304 305 306 307 308 310 310 311 311
315 313 310 310 312 312 312 312 312 310 308 309 310 310 310 310 311 311 310 309 308 307 307 308 307 306 309 309 308 308 309 308 310 311 311 312 310 306 305 307 309 310 310 310 310 310 313 314 313 312 313 314 313 312 311 307 304 305 305 305 307 308 308 308 308 308 309 310 310 310 311 312 311 312 312 310 309 308 305 302 302 304 306 308 309 310 310 310
315 314 311 309 309 310 311 311 312 311 310 309 310 310 310 311 311 311 311 311 309 308 307 308 307 306 308 308 307 308 309 309 310 310 309 311 311 307 303 303 307 309 308 308 307 310 315 315 312 312 313 312 313 313 313 310 306 306 306 305 306 307 308 309 309 310 310 309 310 311 311 311 311 311 311 311 310 309 307 305 303 302 305 307 308 309 310 309
315 315 312 309 309 309 309 310 310 311 311 311 310 311 311 311 311 310 310 311 312 310 309 309 308 308 309 308 308 308 308 309 310 308 308 309 310 308 303 302 305 306 305 306 307 310 314 313 311 313 312 311 312 311 312 311 308 308 308 307 306 306 308 310 310 310 310 309 310 311 311 312 311 310 310 311 310 310 309 309 307 305 306 307 307 308 308 307
315 315 313 312 313 311 309 309 309 310 311 311 311 312 313 312 312 312 311 311 311 311 311 311 310 309 309 309 310 310 309 310 310 309 309 309 308 308 306 305 305 304 305 306 306 308 311 311 311 313 312 312 311 310 311 311 310 309 309 308 307 306 307 309 309 309 310 310 310 311 311 311 311 310 310 310 310 310 310 309 309 307 306 306 306 306 306 305
313 315 313 312 314 313 310 309 309 309 310 311 311 312 313 313 313 313 312 312 310 310 311 312 312 310 310 310 311 311 310 311 311 310 309 309 310 310 308 308 306 302 304 307 307 307 309 310 311 311 311 311 311 311 311 311 310 310 310 309 309 308 307 308 307 308 309 309 310 310 311 311 310 310 310 310 310 310 309 309 309 307 306 306 306 306 306 305
311 313 313 312 312 312 311 310 310 310 310 310 311 311 312 313 313 313 313 312 312 311 311 311 312 312 311 311 311 310 310 310 312 312 311 310 311 310 309 310 309 305 304 308 308 307 308 310 310 310 310 311 310 310 311 310 310 310 309 310 310 309 309 308 308 308 308 308 308 308 309 309 309 309 309 310 310 309 308 308 308 308 307 307 307 307 307 306
307 309 310 311 311 311 311 310 311 311 310 310 310 311 311 312 312 313 313 313 313 312 311 311 311 312 312 312 311 310 310 310 310 310 311 311 311 310 310 311 311 309 306 307 307 306 307 309 310 310 311 311 311 311 310 310 310 309 309 309 309 309 309 309 309 309 308 308 308 308 308 308 308 309 309 308 309 308 308 308 308 308 308 307 307 307 307 307
305 306 307 308 308 310 311 311 310 311 311 310 310 310 311 312 311 312 313 313 312 312 312 311 311 311 312 312 312 311 310 310 310 310 310 311 310 309 310 309 310 310 308 307 307 306 307 308 309 310 310 310 311 311 310 310 311 310 310 309 309 309 309 309 310 309 309 309 309 309 309 308 308 309 309 308 308 308 308 308 308 308 307 307 307 307 307 307
Wind_Speed
7 8 8 9 10 10 10 11 11 12 12 12 12 12 12 11 11 11 10 10 10 8 6 4 1 4 5 5 5 6 6 6 6 7 7 5 6 6 5 5 4 4 4 3 3 2 1 2 4 6 6 6 5 4 3 3 5 4 2 3 3 2 2 3 5 4 1 0 4 9 12 11 7 9 11 8 11 14 13 17 20 21 24 26 22 16 12 11
6 6 7 8 8 9 9 10 11 11 12 13 13 13 13 13 12 11 11 10 9 8 6 5 2 3 5 6 6 6 6 6 8 10 9 6 6 6 5 5 3 2 3 3 3 2 0 3 4 6 8 6 4 4 3 1 3 3 1 3 4 1 1 1 3 4 3 0 2 7 12 12 7 6 9 8 8 12 12 15 18 22 24 28 28 24 20 15
5 5 6 7 7 8 8 9 9 10 11 12 13 13 13 13 13 12 11 10 9 8 7 6 4 2 4 7 7 7 7 7 9 11 11 9 7 7 6 5 3 2 1 2 2 2 2 4 4 7 9 6 4 4 3 1 2 2 2 4 3 1 2 3 5 6 6 3 1 5 10 12 10 6 8 8 8 9 13 14 14 20 28 30 31 30 27 21
5 5 6 6 6 7 7 8 8 9 10 11 12 13 13 14 14 13 12 11 10 9 7 6 6 4 3 6 7 8 7 7 10 11 11 10 8 8 7 6 4 2 0 1 1 2 4 3 3 8 9 4 3 4 3 2 2 2 3 4 1 2 3 4 6 7 8 7 3 4 7 9 11 11 10 7 7 10 16 20 19 23 27 27 29 30 29 27
7 7 6 6 7 7 7 8 8 9 9 10 11 12 13 14 14 14 13 12 11 10 8 7 7 5 3 5 7 9 7 4 6 10 12 11 9 9 8 7 6 3 1 2 2 3 6 3 5 9 6 3 3 3 2 2 2 3 3 3 1 3 3 2 5 8 8 7 5 5 6 7 8 12 14 11 11 13 12 17 21 22 22 24 26 27 28 29
8 8 7 8 7 8 8 8 9 9 9 10 11 11 12 13 14 14 13 12 11 11 10 8 7 6 4 4 6 8 9 3 2 7 11 12 10 9 9 8 7 5 3 3 3 3 5 3 5 8 4 2 4 3 2 4 3 3 3 2 3 6 4 2 3 7 8 8 6 6 6 6 6 9 14 18 24 24 17 18 19 18 19 22 24 24 26 29
9 9 9 9 8 9 9 9 9 10 10 10 11 12 12 13 14 14 14 13 12 11 11 9 8 6 5 4 5 8 12 11 6 6 9 11 11 10 10 8 8 7 5 5 4 4 5 3 3 7 4 2 4 4 2 4 5 4 3 2 5 8 7 6 4 6 8 9 8 7 6 7 8 7 7 19 34 33 28 27 25 22 19 19 22 24 26 28
11 11 11 10 10 10 10 10 10 10 11 11 11 12 13 13 14 15 15 14 13 12 12 10 8 7 5 4 5 7 13 15 11 10 11 12 13 12 11 10 9 8 7 6 6 5 5 4 2 5 4 1 4 6 3 3 6 6 4 2 3 7 9 10 9 10 9 11 10 7 8 9 10 8 8 26 39 34 32 32 29 28 25 23 23 24 25 27
14 13 13 12 12 11 11 11 10 11 11 11 12 13 14 14 14 15 15 15 15 14 14 11 9 7 5 5 5 6 9 11 10 12 12 12 14 14 13 11 10 9 8 8 7 7 5 4 3 3 4 3 4 5 4 3 4 5 3 1 3 5 7 10 10 10 9 10 9 8 11 9 9 8 14 31 34 27 28 27 27 29 29 29 28 27 27 27
15 15 15 15 14 13 12 12 11 11 11 11 12 12 14 14 14 15 15 16 16 16 15 12 9 8 6 5 5 4 6 7 7 9 10 11 13 15 15 13 11 10 9 9 8 7 6 5 5 4 4 4 5 3 4 3 1 2 2 4 7 8 8 8 8 8 9 10 9 10 11 7 4 4 11 17 13 12 14 15 20 23 27 30 30 30 29 29
16 16 16 17 16 16 15 14 13 12 12 12 12 12 14 14 14 15 15 16 16 16 16 13 11 9 7 6 7 7 8 7 6 7 8 10 12 15 15 14 12 10 9 9 9 8 8 7 5 2 2 3 4 3 4 4 2 1 3 6 8 8 10 10 9 8 7 7 8 9 9 7 1 5 17 18 11 11 10 11 15 18 22 25 27 29 29 31
18 17 17 17 17 18 17 17 16 14 13 13 13 13 14 15 15 15 15 16 16 16 15 13 10 9 8 9 13 13 12 11 10 10 10 11 13 15 16 15 13 11 10 9 9 9 8 7 6 4 2 3 3 2 3 4 2 2 2 5 5 5 8 8 6 5 6 4 3 3 8 9 8 14 27 24 19 18 14 15 17 18 21 22 24 27 28 30
19 19 18 19 19 19 19 19 19 18 16 15 14 14 15 16 16 16 16 16 17 17 15 12 10 11 10 10 13 14 13 13 12 12 13 13 13 14 15 15 13 11 10 9 9 8 8 7 6 4 3 3 2 2 2 2 1 1 1 3 5 5 5 4 3 3 6 3 2 1 9 9 11 22 29 21 19 18 15 18 20 21 22 22 24 26 28 30
21 21 20 20 20 20 20 21 21 21 20 18 16 15 16 17 17 17 17 17 18 17 16 13 10 11 11 11 13 14 14 14 13 13 13 13 12 13 14 14 13 11 10 9 8 7 7 7 5 4 3 3 2 3 2 1 1 1 1 1 2 4 2 4 3 5 6 3 5 3 8 11 7 14 18 16 18 17 15 17 21 23 24 24 25 27 29 30
23 23 22 22 22 22 22 22 22 23 22 21 19 17 17 18 18 18 18 18 18 17 16 14 11 10 10 12 14 13 13 14 14 14 13 13 12 11 13 13 12 11 10 8 8 7 6 6 5 2 2 3 3 3 2 2 2 0 2 3 2 3 2 3 5 6 4 3 6 5 6 13 12 5 10 13 16 16 15 16 20 25 25 26 27 29 31 31
26 26 25 25 24 24 23 24 24 24 24 23 22 20 19 20 20 19 20 19 18 18 16 13 11 8 7 10 12 13 14 14 13 12 12 12 12 11 12 12 11 10 9 8 7 6 5 5 5 3 3 3 3 3 4 4 3 2 3 5 2 4 4 1 4 4 2 2 7 9 7 11 10 2 6 10 12 14 15 18 24 28 30 30 30 32 34 33
28 28 27 27 26 26 25 25 25 26 26 25 24 23 21 21 22 21 20 19 18 17 14 12 9 7 9 11 12 13 14 13 11 10 11 11 11 11 11 11 10 9 7 7 6 6 6 4 3 3 3 1 1 3 3 6 6 2 2 4 4 4 5 4 2 4 3 3 7 10 10 15 15 10 10 12 13 14 17 24 30 33 35 34 34 35 36 35
29 29 29 29 29 28 28 27 27 27 27 27 26 25 23 23 23 22 20 18 16 12 11 10 6 3 9 14 14 12 12 11 10 10 10 10 11 12 12 11 9 8 5 5 6 6 5 3 2 3 2 3 3 4 6 7 6 4 4 5 5 5 6 7 3 2 5 4 7 9 11 18 21 20 22 21 19 19 22 29 33 33 34 34 35 38 37 36
26 26 27 28 28 27 27 28 28 29 29 28 27 26 26 24 23 21 16 13 11 7 6 8 9 5 5 9 13 13 11 10 10 11 11 11 12 12 12 11 10 9 5 3 5 6 5 3 2 4 5 8 8 10 11 8 4 5 5 5 7 6 8 8 1 2 3 4 9 13 14 17 20 20 23 23 19 21 25 30 33 31 29 32 35 37 37 37
23 23 24 24 24 23 23 24 25 27 28 28 28 26 21 15 11 11 10 12 14 13 13 13 13 13 12 11 11 12 13 13 12 13 12 12 12 11 12 10 8 8 6 3 3 5 4 4 5 9 10 8 10 13 9 3 1 3 3 4 8 7 10 7 3 4 2 4 11 14 15 18 20 19 22 24 16 18 25 25 29 29 29 36 37 35 35 37
22 23 23 23 22 21 20 21 22 23 24 25 25 21 14 8 6 7 10 14 17 18 20 21 21 22 23 20 18 18 16 13 14 15 14 13 12 9 10 10 7 6 5 3 3 3 4 6 12 14 8 2 4 8 5 1 2 4 5 5 7 7 9 5 3 3 3 3 9 11 13 17 19 18 21 24 15 18 26 25 28 29 29 37 38 34 33 34
22 23 23 23 23 21 21 21 21 21 21 21 20 16 13 13 12 12 12 12 18 22 22 24 26 27 28 27 27 27 19 12 14 18 17 14 16 11 8 9 6 4 3 5 3 2 4 10 14 6 4 6 2 3 5 6 5 4 4 4 6 5 6 4 2 3 4 4 6 7 11 16 20 19 21 25 19 19 26 26 30 31 28 32 30 29 30 30
21 22 23 24 23 21 21 21 20 20 19 17 15 13 11 11 11 13 12 8 14 21 22 24 26 28 29 29 29 28 21 15 14 19 20 17 18 14 10 9 6 2 4 8 8 5 5 9 7 3 8 6 2 3 6 4 4 6 4 5 7 2 2 5 0 2 4 4 6 9 12 13 16 17 18 22 19 19 24 26 31 32 32 33 25 22 26 27
20 21 22 23 22 20 19 19 19 18 17 14 12 11 9 9 9 10 10 7 7 13 19 22 22 26 28 26 25 23 21 19 14 14 20 21 18 13 11 8 5 4 6 10 10 9 9 4 4 6 5 6 3 4 7 6 5 6 6 8 10 5 5 6 2 3 4 4 3 8 11 11 9 10 10 7 6 12 18 20 26 32 36 35 27 24 26 26
18 20 20 21 21 18 17 18 16 15 14 10 9 8 7 6 6 6 6 5 4 6 13 16 17 21 24 22 21 17 14 16 17 14 16 23 21 11 6 7 7 8 8 9 8 10 11 3 7 5 2 5 5 5 8 8 5 5 8 12 13 8 6 3 3 4 5 3 1 4 10 8 4 6 5 2 2 7 8 9 17 27 30 28 26 26 24 23
17 18 18 19 18 16 15 14 12 11 8 7 7 7 6 5 4 4 4 4 4 3 5 8 9 11 13 14 15 12 5 9 15 17 15 20 23 14 4 6 5 5 4 7 5 6 4 1 3 4 4 6 6 6 7 8 6 4 4 7 10 8 4 2 1 2 5 4 0 2 6 9 3 6 5 3 4 6 6 7 12 22 27 25 24 23 21 22
16 16 17 17 16 14 12 10 11 9 5 6 5 6 6 6 3 2 2 5 5 5 6 7 8 8 9 9 14 12 2 3 8 14 18 19 21 16 8 6 4 2 4 4 3 2 2 4 3 4 6 6 7 7 6 10 6 3 1 1 4 5 4 4 4 5 4 4 2 3 5 11 8 8 8 6 6 7 9 13 13 18 25 24 24 22 19 20
16 16 17 17 15 13 10 9 10 7 6 6 6 9 7 7 5 2 1 6 3 6 6 6 7 9 10 12 19 12 1 3 4 9 18 19 18 13 8 8 4 4 5 4 5 2 2 5 6 8 7 7 7 2 6 12 6 1 2 3 4 4 3 4 4 5 3 4 5 6 7 9 10 6 6 4 8 9 13 16 15 17 21 21 21 19 15 15
15 16 17 17 14 12 10 9 7 7 8 7 9 9 7 8 4 3 2 5 1 5 4 7 8 8 9 12 16 12 2 1 1 6 14 15 15 9 3 6 4 4 3 4 5 1 2 2 4 7 7 6 3 4 2 8 5 3 5 5 6 5 4 2 3 3 2 4 7 8 10 7 10 5 7 1 6 10 12 13 13 15 19 19 18 13 11 13
16 17 17 17 15 12 11 8 7 8 8 9 10 10 10 9 3 1 7 5 1 2 4 7 7 7 10 8 7 8 4 1 3 9 9 7 11 6 1 4 4 2 2 2 5 1 3 1 1 4 5 2 5 5 4 1 3 7 6 4 4 3 3 1 1 1 4 7 7 11 16 12 10 2 9 6 6 11 10 10 11 11 15 20 18 13 13 13
18 18 19 18 16 12 10 7 7 8 11 12 11 13 12 6 1 6 8 2 1 2 4 5 4 6 10 6 2 5 5 2 5 10 6 4 7 5 3 4 4 2 2 4 6 2 2 3 2 3 4 6 6 4 5 4 3 5 4 2 1 2 2 2 2 2 6 7 2 5 11 14 12 5 7 6 6 10 11 9 10 8 12 21 21 16 15 15
20 20 21 20 18 14 9 7 8 9 13 14 14 15 9 2 5 7 3 3 0 4 4 3 3 5 7 3 1 4 3 2 6 8 5 4 5 7 6 6 5 3 4 6 5 1 3 5 3 3 5 7 5 4 4 2 2 3 3 4 3 3 2 3 4 4 6 6 1 2 3 9 15 11 6 5 5 9 10 8 10 9 12 22 23 18 16 16
22 22 23 23 21 17 11 9 9 12 15 16 15 11 4 5 7 4 4 3 2 2 2 1 2 3 5 4 2 2 1 1 5 5 2 2 4 6 6 4 3 2 3 4 3 2 3 1 5 4 4 10 11 7 5 4 6 8 7 6 5 4 2 5 5 3 5 4 3 4 2 6 11 10 11 15 13 12 12 16 20 15 15 20 21 19 18 17
26 25 26 26 24 20 15 11 10 14 17 17 14 6 2 9 7 4 7 9 2 2 3 3 3 3 3 2 2 2 3 2 5 5 3 3 4 6 7 7 6 3 0 2 2 4 5 5 8 8 4 12 17 9 2 5 7 8 4 3 5 4 5 6 4 4 6 4 2 4 2 6 5 2 7 12 13 16 20 26 27 21 19 18 16 18 18 17
28 28 30 29 27 26 21 14 11 16 20 18 10 3 6 12 6 2 6 6 2 1 2 2 3 4 3 2 1 3 6 4 4 5 5 6 6 6 6 8 11 6 3 3 2 3 6 7 4 4 2 12 12 4 4 6 5 4 2 2 4 4 6 4 3 2 2 5 4 5 4 7 4 1 3 2 4 12 19 23 20 20 27 23 18 21 21 19
32 32 32 33 33 31 23 16 14 19 24 18 6 4 11 11 4 3 3 3 4 4 5 1 3 4 5 3 3 5 4 2 3 4 5 6 6 6 3 3 10 13 9 6 2 3 4 4 3 3 1 4 1 2 2 1 2 4 3 5 2 1 2 4 2 2 2 6 7 4 7 10 6 4 7 7 6 8 12 15 14 20 30 25 23 29 28 25
35 34 34 36 37 33 25 18 15 20 23 15 6 8 9 7 4 4 2 2 3 5 6 5 5 6 5 4 5 6 5 3 5 5 5 4 4 7 6 3 8 16 17 11 4 4 5 3 2 3 1 1 3 4 1 3 1 4 4 4 2 2 1 2 3 1 2 7 6 5 11 13 10 6 5 8 9 9 11 12 10 17 24 21 28 37 36 32
38 37 38 41 41 35 28 21 19 21 18 8 9 12 6 3 3 3 4 4 2 4 5 7 5 5 6 5 3 6 7 5 6 6 5 4 4 7 10 6 9 17 24 20 6 3 4 3 2 1 1 2 2 1 2 1 1 1 2 1 1 2 3 3 2 4 6 6 6 11 16 15 12 7 3 8 12 12 13 11 9 12 14 17 31 40 38 35
38 32 31 40 41 36 30 24 23 21 13 6 11 12 4 3 3 2 5 5 1 3 6 7 5 3 5 5 2 4 8 7 7 6 6 5 4 6 10 8 8 15 24 22 10 3 3 4 3 2 2 1 2 4 6 5 2 1 2 2 1 2 3 3 2 2 5 6 7 13 16 14 7 3 5 8 12 13 11 10 10 11 14 22 34 38 36 35
37 23 19 31 34 32 31 27 25 20 10 7 11 9 3 2 3 6 11 9 3 4 6 6 5 5 5 3 1 3 6 6 6 6 5 5 4 4 9 8 4 6 12 13 8 2 3 3 4 1 2 2 4 7 9 9 7 5 5 6 5 2 1 2 2 1 3 6 6 9 13 13 3 6 5 5 8 10 10 10 11 11 18 30 35 37 36 34
34 13 11 24 24 28 34 26 18 14 7 6 10 9 7 4 4 6 10 11 8 6 4 3 5 7 7 5 2 3 4 4 5 6 4 6 6 4 10 15 8 7 7 4 6 4 3 4 5 3 3 5 6 6 5 3 3 5 7 8 9 7 4 3 5 3 2 5 7 6 10 14 4 6 2 3 4 6 8 10 9 10 22 33 36 36 33 31
26 9 12 22 22 31 36 20 11 12 7 8 9 7 8 7 7 8 8 9 8 5 3 3 4 7 7 5 3 3 4 4 5 6 5 6 9 6 10 17 15 13 10 4 4 5 3 2 3 5 5 5 4 1 2 0 0 1 4 4 5 6 6 7 7 3 2 4 6 3 6 13 3 7 2 2 4 5 9 11 7 11 25 32 32 33 30 29
21 13 16 22 27 38 32 9 6 10 7 11 10 8 11 8 3 5 7 8 7 3 2 3 3 6 7 2 1 3 5 5 6 7 4 4 9 9 8 15 16 11 6 3 2 3 3 1 5 5 4 3 1 3 2 0 2 3 5 5 5 6 8 6 3 1 1 6 7 2 5 13 3 5 1 3 3 4 9 12 11 13 23 27 27 30 30 28
16 15 17 25 35 42 27 5 6 10 9 10 10 12 14 9 8 9 6 7 8 4 5 7 4 6 6 2 3 5 5 5 7 8 6 6 5 5 8 17 18 9 5 5 5 9 7 3 5 5 5 6 4 3 3 2 4 5 5 7 9 10 9 3 2 0 5 13 13 5 8 14 5 2 2 2 2 3 4 8 12 13 18 23 26 30 29 27
10 8 15 30 45 43 24 10 9 9 10 12 13 15 12 8 14 22 15 11 12 8 6 7 5 6 6 4 6 10 8 9 10 6 6 6 3 1 4 16 20 14 10 6 6 12 8 4 7 9 8 9 10 10 5 3 5 4 3 9 12 14 14 8 3 5 9 14 13 8 12 15 11 10 9 5 4 4 3 6 11 15 19 23 27 29 28 27
8 4 6 19 35 36 24 17 11 5 9 13 10 10 13 10 12 19 18 14 17 16 8 2 2 4 5 6 9 12 13 14 10 3 4 6 3 2 1 9 16 12 5 2 8 10 3 3 11 14 14 13 14 16 6 5 6 6 6 12 14 16 18 12 7 11 10 5 7 13 19 18 17 21 21 15 10 8 7 7 9 17 24 25 27 27 27 31
8 5 5 9 17 20 18 17 13 6 8 12 7 6 15 16 10 10 13 13 17 17 9 4 6 7 6 9 12 13 15 15 10 9 13 12 5 1 3 2 8 6 1 2 7 8 2 4 12 16 19 19 18 22 16 7 9 9 8 12 14 15 17 15 16 16 5 2 8 21 24 19 16 20 25 26 21 13 11 13 12 18 26 27 27 28 31 36
10 7 13 16 12 8 10 18 20 14 11 11 8 8 14 17 13 11 13 12 12 13 9 6 12 16 17 17 14 12 14 12 9 11 15 14 9 5 1 0 4 7 5 3 3 4 3 6 11 13 18 20 20 26 26 19 15 12 10 12 13 15 19 21 23 18 8 8 16 21 24 21 16 20 27 28 21 12 11 19 21 19 20 21 23 28 34 38
14 10 12 18 14 9 18 30 28 20 17 14 10 11 15 18 17 14 11 7 7 12 14 12 15 21 25 24 17 13 12 11 11 13 12 12 13 8 5 4 3 4 5 3 2 3 2 6 13 15 17 20 21 23 25 22 19 17 16 14 13 18 22 21 19 19 19 22 21 19 24 23 18 24 29 24 21 18 18 25 28 23 19 20 23 31 37 39
19 14 8 11 13 11 19 27 22 15 16 16 12 12 16 19 19 16 13 12 10 10 14 18 22 22 23 23 20 18 18 17 18 17 12 11 12 9 7 8 4 1 1 3 2 2 5 8 13 12 12 15 19 22 24 22 20 19 18 16 19 24 24 20 20 20 22 24 22 20 20 18 19 27 26 21 26 28 26 28 30 32 32 27 27 34 38 38
25 25 22 15 8 8 11 13 12 10 11 13 12 13 16 19 20 17 16 20 21 15 14 22 26 22 19 19 18 20 24 24 24 26 24 19 16 12 9 8 7 4 3 4 3 3 5 8 8 8 9 11 16 22 23 21 19 17 15 18 25 26 22 22 24 22 19 19 20 19 14 13 21 24 19 20 26 25 23 22 26 36 38 28 25 32 37 37
22 25 28 21 6 5 8 7 8 11 10 11 14 16 16 18 21 18 15 16 24 28 27 23 21 17 14 15 20 28 36 36 35 38 39 32 22 16 14 12 13 10 6 6 5 5 6 7 7 8 9 10 16 20 18 14 12 11 14 24 30 27 24 25 27 26 24 20 17 15 12 15 19 19 18 22 23 21 19 20 26 34 32 24 26 34 39 42
Wind_Direction
12 12 11 12 11 11 9 6 2 359 358 357 356 352 349 349 352 356 4 13 13 9 14 18 260 212 210 212 210 205 207 214 220 218 210 195 188 184 169 142 113 98 81 72 67 70 180 208 223 225 218 204 211 206 172 137 149 171 217 241 245 240 217 187 193 191 319 351 159 180 192 207 207 191 207 225 222 224 235 230 227 230 229 233 235 230 235 230
4 6 8 10 10 10 9 6 2 359 357 356 355 352 349 346 346 348 350 357 4 3 358 2 355 231 219 215 218 218 217 227 233 227 215 200 196 196 181 153 134 112 82 67 62 60 304 275 255 210 194 196 215 207 195 166 159 191 209 247 248 230 205 192 212 209 214 224 141 188 197 213 223 180 197 224 221 212 229 234 228 235 237 237 238 234 235 233
353 359 2 4 6 6 5 3 1 358 356 355 353 351 349 345 344 345 344 345 348 355 351 347 348 298 231 222 226 225 230 250 254 237 217 206 207 208 195 175 168 149 87 50 54 47 356 295 254 188 182 192 209 191 193 216 201 195 203 249 244 185 266 235 230 221 216 225 119 191 197 212 231 200 193 225 233 213 224 227 213 229 240 241 241 237 234 232
339 347 352 357 359 359 358 357 356 355 354 352 351 350 348 345 344 343 343 341 336 340 344 340 336 324 253 233 230 228 242 269 262 240 216 208 212 214 208 197 193 191 235 357 0 355 351 323 205 178 180 188 197 197 215 243 223 184 211 266 85 130 250 235 229 223 222 235 216 181 186 214 230 215 207 217 243 240 232 231 224 236 246 245 245 242 235 231
329 336 343 348 351 354 353 352 352 353 351 350 349 347 347 345 343 343 342 340 334 330 332 335 332 325 286 241 232 227 236 273 253 225 211 207 214 218 216 214 216 224 252 310 316 322 343 342 178 175 182 184 180 202 218 222 228 196 223 290 93 172 230 243 227 226 225 225 207 181 183 214 218 216 219 211 233 250 243 241 244 249 253 251 253 249 237 232
320 326 333 339 344 348 348 348 349 351 349 348 345 343 344 343 342 343 343 341 335 327 324 327 327 323 306 257 237 223 221 241 217 200 204 209 218 221 220 223 225 237 253 287 307 306 333 341 184 182 186 180 186 208 196 195 215 234 233 229 218 217 235 262 221 228 225 207 199 198 212 219 208 228 227 220 236 247 250 257 262 259 252 253 256 251 241 235
311 317 322 329 335 338 341 342 344 346 347 346 344 341 340 341 340 340 343 342 337 330 323 321 321 316 309 277 243 224 226 240 242 212 214 219 225 226 227 229 230 237 247 271 292 288 311 328 205 191 185 170 194 202 193 204 211 249 253 186 232 235 235 251 245 249 231 212 216 211 230 222 214 243 234 234 245 249 253 260 264 263 257 254 253 250 246 241
305 309 313 319 324 329 332 333 337 340 342 343 342 340 338 339 338 338 341 341 338 333 325 318 315 307 304 284 247 233 240 248 251 244 240 236 235 233 232 234 235 238 243 260 280 283 293 311 246 195 199 208 184 183 178 219 207 223 250 187 232 244 241 251 258 265 249 233 237 228 241 233 226 253 260 255 259 259 260 262 262 260 258 254 253 252 247 242
302 304 308 312 315 320 322 324 329 331 334 337 338 337 335 337 337 336 337 337 336 335 329 319 309 300 293 279 252 245 254 258 256 249 248 245 237 232 232 235 238 237 242 256 269 278 280 291 291 242 238 205 173 177 176 225 216 206 237 210 232 251 253 259 258 261 255 246 245 238 248 245 241 265 268 264 267 267 264 261 258 255 254 253 252 251 249 245
295 299 303 306 309 312 313 315 318 321 325 327 331 332 330 331 334 334 334 335 333 333 331 321 306 294 283 269 243 244 266 267 260 251 246 244 234 230 232 236 240 239 243 256 263 275 272 275 300 273 234 190 179 189 187 222 272 192 251 271 258 260 261 261 255 249 252 256 248 245 258 265 254 256 264 263 261 261 258 253 251 250 250 252 251 250 249 246
288 292 296 300 304 306 306 308 309 311 314 316 321 322 322 324 327 329 329 330 329 329 329 321 308 291 282 261 226 239 273 270 261 254 245 242 235 233 236 237 241 241 243 254 260 271 269 268 295 291 212 192 194 206 214 229 276 327 306 280 258 262 263 248 246 248 244 259 251 248 265 265 197 219 245 248 249 258 258 254 253 249 249 251 251 249 247 245
282 285 289 293 297 299 301 302 302 304 305 307 310 312 314 315 317 321 321 323 323 323 322 318 306 290 288 266 246 255 272 268 260 257 250 249 246 241 241 240 242 244 244 254 260 267 270 263 278 294 241 209 206 214 215 209 259 321 327 289 263 269 266 223 220 235 214 248 253 244 268 237 189 227 246 249 254 261 258 257 258 253 251 250 250 248 247 245
278 280 283 286 289 293 295 297 298 300 300 301 304 305 307 307 310 313 313 315 316 317 317 311 299 290 287 270 265 271 269 265 261 258 253 251 252 246 241 240 242 244 246 253 260 264 266 257 262 278 232 203 217 220 186 155 255 281 141 294 285 277 262 175 150 184 188 223 160 175 283 252 195 223 244 254 256 256 251 253 256 255 253 251 250 249 247 244
277 277 279 281 283 286 289 292 294 295 297 299 300 301 303 304 306 307 308 310 310 311 309 302 292 286 276 269 278 277 267 265 262 257 255 251 250 245 239 239 241 243 248 252 256 260 260 251 250 259 221 190 172 180 189 153 216 247 169 235 264 270 258 132 148 173 179 191 161 178 276 274 245 216 232 254 255 251 246 248 253 255 254 252 251 250 248 245
277 278 278 279 280 282 284 287 289 292 293 294 297 300 302 302 303 305 305 305 305 304 300 296 289 281 272 272 277 273 266 264 261 258 254 250 246 240 235 236 238 241 247 249 251 254 252 238 235 235 169 167 160 187 237 231 180 188 255 240 195 239 260 139 165 186 201 152 167 204 255 274 283 216 209 244 249 245 243 247 252 255 256 255 254 253 250 246
277 278 278 279 279 280 282 284 286 288 289 291 294 296 299 301 302 304 303 303 301 296 292 288 281 270 268 277 274 266 262 258 258 258 251 247 241 235 234 234 235 239 243 248 250 247 236 226 225 211 188 189 190 226 267 260 226 180 243 264 236 231 276 241 157 179 233 146 185 221 252 276 280 198 194 229 240 243 247 256 260 260 260 257 257 255 252 248
274 276 277 278 279 279 280 282 284 285 286 288 290 292 297 298 299 303 302 299 293 286 284 278 273 268 259 266 266 258 255 252 253 253 247 244 236 231 232 230 231 235 237 243 239 222 214 210 214 213 196 187 204 216 256 262 250 201 191 255 255 240 270 275 171 135 162 203 222 221 237 261 265 265 258 251 251 250 251 261 265 265 262 259 258 256 252 249
274 274 275 276 277 278 279 280 281 282 283 285 287 290 293 296 300 303 299 290 281 278 277 256 231 258 256 247 247 246 246 245 247 249 244 240 235 229 228 226 228 225 217 229 219 202 199 188 210 244 206 195 198 192 223 249 258 253 231 248 268 244 241 253 244 146 150 196 240 227 233 254 264 271 271 265 258 251 254 263 266 263 261 260 258 255 252 249
275 275 275 276 277 277 278 279 278 279 279 281 284 287 291 297 299 298 291 275 257 251 264 228 198 218 268 251 242 240 242 242 248 253 245 238 233 226 221 221 222 209 188 203 199 182 186 181 193 244 232 212 201 202 225 244 258 267 262 259 268 259 255 256 200 134 179 218 243 241 244 256 264 270 273 270 257 250 256 261 265 262 258 259 257 254 251 249
279 278 278 278 278 279 279 278 278 277 278 277 279 282 288 296 302 299 281 258 248 251 261 252 236 244 261 267 249 238 243 250 258 257 248 239 225 217 217 211 208 207 203 206 177 158 182 218 227 236 235 212 204 213 230 274 315 263 259 248 253 254 265 266 114 113 170 239 249 247 251 260 265 268 273 272 256 251 257 255 259 259 258 260 258 253 251 254
281 280 280 280 280 281 281 281 281 281 280 278 278 281 280 272 273 286 282 274 268 263 261 259 256 255 258 259 254 252 254 258 262 254 246 233 208 202 208 199 195 210 201 131 106 132 167 225 239 240 239 185 201 209 208 208 190 233 242 251 255 247 262 274 97 126 157 222 256 254 260 262 263 264 269 268 248 243 254 255 260 262 262 264 260 255 255 259
280 280 281 281 281 283 283 284 284 284 285 281 278 278 273 267 266 271 280 284 276 268 261 259 256 255 258 256 254 256 254 255 258 247 238 218 202 201 192 189 206 214 152 124 137 169 197 239 245 235 108 95 95 166 193 212 205 218 228 249 260 255 277 286 93 117 160 229 266 275 278 270 265 262 260 260 250 247 253 254 260 264 265 264 261 256 256 259
281 281 282 283 284 286 285 286 286 286 286 282 278 273 269 271 269 271 273 273 278 273 263 257 254 253 255 253 252 251 242 240 249 242 232 212 199 201 193 191 209 191 165 187 196 194 214 248 256 108 120 145 124 138 183 205 205 212 205 229 249 242 287 269 124 113 183 233 285 292 282 270 262 258 254 255 256 259 259 256 259 261 261 260 259 258 257 258
282 282 283 285 287 289 288 288 287 286 286 281 274 265 264 266 261 270 273 263 276 272 260 252 247 249 250 249 248 242 234 236 239 237 226 206 191 193 203 200 192 208 216 202 201 221 236 242 86 95 147 182 177 166 188 207 215 218 213 227 245 242 233 246 348 335 239 218 278 296 286 266 239 236 250 256 257 264 262 259 258 257 260 260 255 255 257 258
283 283 285 287 291 294 292 290 287 285 285 276 263 251 252 251 248 268 280 271 259 253 257 248 237 243 242 241 239 230 229 237 235 230 213 201 192 179 186 188 195 229 216 177 188 238 249 199 116 119 134 175 191 199 200 207 220 231 222 226 242 256 249 243 24 339 283 242 206 329 309 284 182 182 236 246 248 263 251 243 248 251 261 264 255 252 254 256
285 286 289 290 294 297 293 289 283 284 280 261 249 231 224 215 229 280 293 276 248 203 220 215 211 225 225 228 219 202 223 246 233 224 206 200 197 187 172 171 195 244 172 145 185 244 251 124 123 160 158 170 208 233 203 188 217 244 225 222 233 245 254 236 161 258 275 283 351 22 306 286 215 177 204 195 233 259 245 242 251 252 258 263 258 253 252 252
294 296 296 296 300 302 295 281 275 276 253 240 225 191 193 186 184 335 332 281 247 172 154 175 183 189 199 201 177 167 230 218 198 206 197 195 194 193 206 183 170 212 150 145 210 222 138 120 126 170 174 186 219 241 186 169 207 248 65 99 185 195 207 198 204 236 271 317 297 190 236 275 269 209 201 191 209 249 259 260 268 262 258 258 260 258 253 250
300 303 304 305 311 312 301 278 267 254 222 216 183 173 176 166 155 73 287 271 246 130 139 168 172 186 190 177 173 176 295 147 157 193 188 188 187 188 222 216 179 165 166 191 219 212 112 160 174 170 178 206 215 243 160 174 204 275 77 66 104 127 157 169 210 248 278 325 272 199 186 266 273 192 181 207 208 232 251 251 258 260 257 256 258 258 248 238
296 300 303 305 314 318 309 290 259 229 214 188 168 173 159 152 146 67 226 258 227 122 142 164 167 185 172 163 187 208 245 156 192 172 173 184 185 179 234 215 162 136 172 234 242 287 56 189 195 170 182 210 184 51 128 193 199 135 129 94 86 85 83 128 236 258 267 274 251 196 167 245 278 174 144 155 208 222 241 244 247 255 258 257 254 246 224 216
290 294 295 298 308 313 313 303 262 232 201 175 173 167 147 144 139 220 229 244 257 130 121 158 175 173 157 154 206 220 213 227 132 142 152 177 187 181 117 151 128 139 178 287 266 248 83 88 296 207 207 157 105 75 28 31 126 138 146 113 101 109 95 122 247 264 264 259 234 199 182 210 273 195 147 165 183 198 219 235 243 253 257 253 246 230 208 203
284 286 287 292 299 303 311 300 262 232 191 174 165 154 147 135 133 227 230 255 328 169 124 167 184 155 166 172 203 188 189 211 154 158 163 159 178 176 149 149 134 163 214 253 249 224 143 177 212 209 175 116 103 93 58 58 123 152 157 150 174 212 145 168 186 157 246 257 221 198 190 202 243 242 157 161 168 194 210 223 231 238 246 242 235 225 209 203
279 279 281 284 286 290 297 278 247 215 189 172 159 156 151 185 230 222 218 48 224 196 159 178 178 173 191 207 222 161 156 197 174 179 180 155 183 187 194 197 163 181 233 221 224 205 195 204 159 144 171 169 162 120 98 95 180 197 173 162 225 260 245 241 219 183 235 251 108 110 180 214 243 252 219 191 190 215 223 227 229 225 234 235 227 218 212 211
273 272 272 273 278 282 279 262 234 204 188 169 161 154 136 242 232 178 160 191 212 171 111 104 139 164 167 169 204 162 132 218 167 177 189 150 202 212 232 245 181 245 252 185 201 211 228 243 138 160 207 192 189 183 192 192 179 190 180 172 210 228 237 249 239 230 255 255 131 129 158 243 260 263 225 213 212 215 219 227 232 231 233 233 222 213 213 217
268 265 265 267 272 272 265 258 228 196 184 171 164 139 149 237 235 134 183 209 211 44 52 57 93 139 165 190 216 170 206 223 148 168 196 160 199 221 227 225 208 247 337 163 214 192 239 269 171 173 168 171 190 207 183 119 156 189 179 173 220 209 214 245 257 267 283 298 207 165 187 244 263 278 210 214 215 213 218 227 233 238 237 232 218 210 214 223
265 261 259 260 261 259 258 255 227 194 180 171 163 148 209 232 240 174 206 201 169 65 59 49 119 157 221 249 267 221 226 226 141 158 193 185 204 208 197 204 195 181 146 195 219 166 242 271 164 139 109 157 181 211 93 103 153 178 110 189 237 216 210 247 301 286 315 313 260 189 214 247 245 183 155 137 210 212 220 228 230 238 239 234 229 225 224 231
263 256 249 249 252 253 252 243 218 193 180 171 163 211 222 237 232 179 204 165 164 145 119 142 167 175 226 220 216 223 215 223 162 167 206 209 232 223 187 205 187 182 186 187 183 173 231 276 121 95 12 156 148 359 96 166 186 153 164 200 212 355 219 230 264 84 98 274 266 219 252 270 271 232 172 155 194 201 215 225 219 229 235 234 236 238 236 237
260 250 241 241 245 247 242 228 209 193 184 178 198 221 224 238 207 173 177 117 133 138 146 208 196 177 211 212 206 192 167 198 181 180 204 196 235 208 182 236 193 188 203 202 210 229 220 262 187 148 180 135 14 7 56 345 3 141 190 201 126 44 326 244 257 263 220 254 271 269 269 277 277 263 151 159 199 207 217 224 215 227 232 230 236 241 242 242
258 247 240 241 244 242 232 217 200 192 185 183 233 238 236 226 178 140 149 147 140 155 180 228 208 172 206 215 199 166 166 186 166 176 208 191 224 184 161 206 197 193 209 209 220 257 198 239 241 118 25 92 74 262 162 35 355 96 274 272 107 210 189 168 214 239 241 247 268 275 277 276 263 251 140 168 199 210 219 219 215 223 222 224 234 240 243 244
254 238 236 240 238 233 225 207 188 181 175 186 228 237 242 222 213 187 188 183 152 182 209 237 228 207 216 203 159 154 181 192 164 176 212 196 213 175 161 190 199 202 208 200 204 243 170 230 247 39 343 103 131 223 196 178 159 66 288 251 283 267 199 178 185 209 239 245 266 278 280 277 259 179 160 189 196 202 211 213 215 219 216 222 231 237 240 240
241 224 237 239 231 222 211 191 175 172 175 207 222 227 233 252 252 237 231 228 213 201 223 234 219 227 227 198 198 184 198 213 185 189 217 195 209 205 178 185 187 206 203 192 210 233 97 232 235 90 307 222 187 200 198 196 179 175 204 190 190 209 70 280 250 177 235 244 251 266 271 272 271 108 150 190 188 196 200 207 214 216 222 226 230 235 237 237
230 216 238 229 219 206 190 171 168 181 191 225 234 239 242 265 267 239 238 237 234 242 249 231 216 231 231 215 226 184 189 225 204 207 228 203 216 231 189 193 180 130 136 174 227 215 153 212 218 185 200 221 224 203 184 205 184 186 200 190 192 184 150 224 234 197 207 241 237 237 263 269 262 93 114 166 171 198 193 204 216 213 222 230 233 235 234 234
219 217 226 211 202 191 179 165 183 195 197 218 229 239 229 239 250 237 237 233 233 258 283 270 249 239 234 225 215 169 183 217 207 211 233 215 218 222 189 191 178 144 139 164 209 197 156 151 215 230 226 234 253 165 117 243 22 236 240 219 203 188 179 207 220 206 174 237 251 243 268 268 263 79 65 180 164 199 192 197 204 207 221 229 232 230 229 232
206 218 214 203 200 188 177 164 197 194 215 225 227 238 223 222 253 239 227 219 218 222 231 265 281 247 243 238 187 201 206 220 214 204 226 241 227 230 202 178 167 152 156 175 161 147 115 155 219 240 265 277 332 91 103 135 140 199 236 213 197 207 208 213 233 257 194 228 233 177 245 263 277 79 246 226 163 197 194 197 200 207 221 227 227 228 229 231
212 214 192 190 194 186 179 182 194 198 223 220 224 238 231 230 242 239 220 194 196 183 204 233 241 230 233 183 191 230 212 218 234 214 214 243 237 229 201 181 173 175 199 197 171 165 167 198 205 213 251 256 243 200 180 171 190 217 225 194 198 211 206 214 342 309 245 242 233 211 245 257 267 101 202 175 167 225 225 214 214 214 220 225 230 233 231 230
226 209 182 185 189 188 190 204 195 200 215 216 225 229 227 235 238 239 238 218 210 200 202 232 227 216 222 196 223 238 218 220 242 232 217 242 250 49 203 193 189 197 216 216 172 170 179 195 187 200 226 226 233 237 219 146 181 217 211 187 197 203 199 200 216 211 235 240 226 223 247 256 273 276 258 223 186 207 241 234 229 230 228 229 234 232 225 228
211 194 186 185 193 202 216 223 215 203 203 214 227 222 222 233 240 239 237 232 229 221 211 229 206 208 219 207 227 241 232 230 237 243 250 247 228 38 339 207 203 208 221 193 163 164 169 226 198 209 225 223 235 247 239 112 152 199 197 190 197 205 203 202 218 224 230 234 220 234 246 255 271 275 273 267 242 214 224 233 224 228 231 230 230 228 228 237
212 179 176 180 201 219 234 235 231 223 198 202 199 197 217 225 236 234 218 220 228 220 212 229 215 216 224 216 226 238 236 233 226 228 246 247 237 321 7 225 224 236 270 157 181 169 137 234 215 222 233 233 246 255 249 212 195 202 189 191 201 208 207 210 225 227 210 65 246 244 247 256 264 269 274 272 263 248 248 259 250 240 240 235 231 234 241 246
234 209 195 198 203 204 218 227 227 224 210 200 196 206 219 221 224 221 211 217 221 202 196 224 219 220 227 225 228 239 241 243 237 230 242 247 240 242 292 278 226 217 201 195 202 179 177 233 230 235 242 243 249 254 254 250 239 228 212 204 202 206 208 214 228 231 213 225 245 250 257 264 265 262 263 263 263 260 262 271 270 259 248 237 235 245 251 252
248 248 215 210 213 192 200 212 217 218 213 209 210 215 221 224 223 220 210 207 217 203 202 219 222 220 225 226 226 234 235 236 239 235 233 239 239 235 237 241 226 197 192 185 193 187 189 240 239 240 249 250 249 252 255 256 255 249 239 229 222 226 223 220 231 237 227 231 244 255 261 265 266 261 258 259 269 277 277 276 274 264 250 240 245 255 258 258
248 259 262 230 226 220 213 213 215 219 214 211 216 214 220 228 228 225 214 201 213 211 201 220 231 225 223 223 221 228 229 227 237 240 228 226 232 226 225 226 211 151 188 191 210 207 204 233 242 243 250 250 250 254 254 254 257 256 254 253 251 249 245 237 239 238 233 240 248 250 256 262 258 256 257 265 275 278 275 273 273 270 264 257 257 262 264 263
254 262 274 277 252 217 223 217 210 221 216 209 215 217 221 228 227 231 230 216 216 218 203 215 229 232 230 227 222 229 231 226 231 235 230 229 226 214 213 208 184 173 195 203 205 182 200 232 243 243 249 246 243 249 250 250 254 257 259 256 250 249 248 244 243 242 241 248 250 247 248 246 247 253 262 268 268 267 266 267 270 269 266 261 261 265 267 266
269 268 268 276 283 186 218 231 211 221 223 207 213 218 220 226 226 230 241 225 218 226 227 222 225 233 238 233 227 231 232 230 232 235 237 242 240 221 214 207 188 183 187 198 208 190 190 220 229 227 241 242 238 244 248 249 251 245 235 237 239 242 247 248 250 249 245 244 246 246 241 243 254 263 265 262 260 258 260 264 266 267 267 266 264 264 267 269